Overview Statistics Trail Chart Weather Telemetry Raw packets
 

This is the latest recevied weather packets stored in our database for station/object SV9TNF-55. If no packets are shown the sender has not sent any weather packets the latest 10 day(s).

<< 6 7 8 9 10 11 12 >>
Time Temp. Humidity Pressure Rain* Wind** Luminosity Snow
1788551850 18.89° C 42% 1015 hPa 0 mm 5.81 m/s, 292° - -
1788551250 18.89° C 42% 1015 hPa 0 mm 5.81 m/s, 292° - -
1788550650 18.89° C 42% 1015 hPa 0 mm 5.81 m/s, 292° - -
1788550050 18.89° C 42% 1015 hPa 0 mm 5.81 m/s, 292° - -
1788549450 18.89° C 42% 1015 hPa 0 mm 5.81 m/s, 292° - -
1788548850 18.89° C 42% 1015 hPa 0 mm 5.81 m/s, 292° - -
1788548250 18.89° C 42% 1015 hPa 0 mm 5.81 m/s, 292° - -
1788547653 18.89° C 42% 1015 hPa 0 mm 5.81 m/s, 292° - -
1788547091 18.89° C 42% 1015 hPa 0 mm 5.81 m/s, 292° - -
1788546491 18.89° C 42% 1015 hPa 0 mm 5.81 m/s, 292° - -
1788545890 18.89° C 42% 1015 hPa 0 mm 5.81 m/s, 292° - -
1788545291 18.89° C 42% 1015 hPa 0 mm 5.81 m/s, 292° - -
1788544691 18.89° C 42% 1015 hPa 0 mm 5.81 m/s, 292° - -
1788544091 18.89° C 42% 1015 hPa 0 mm 5.81 m/s, 292° - -
1788543490 18.89° C 43% 1014.5 hPa 0 mm 5.36 m/s, 292° - -
1788542890 18.89° C 44% 1015 hPa 0 mm 4.47 m/s, 292° - -
1788542290 18.89° C 43% 1014.4 hPa 0 mm 4.02 m/s, 292° - -
1788541690 18.89° C 43% 1014.4 hPa 0 mm 4.02 m/s, 292° - -
1788541090 18.89° C 45% 1014.6 hPa 0 mm 4.02 m/s, 270° - -
1788540489 19.44° C 44% 1014.3 hPa 0 mm 5.36 m/s, 292° - -
1788539890 18.89° C 46% 1014.5 hPa 0 mm 4.92 m/s, 292° - -
1788539290 18.89° C 49% 1014.4 hPa 0 mm 3.13 m/s, 270° - -
1788538689 18.89° C 50% 1014.3 hPa 0 mm 3.13 m/s, 292° - -
1788538089 18.89° C 52% 1014.3 hPa 0 mm 2.68 m/s, 315° - -
1788537489 18.89° C 51% 1014.3 hPa 0 mm 4.47 m/s, 292° - -

* Rain latest hour (hover to see other rain measurements)
** Current wind speed in m/s (hover to see current wind gust speed)